Regional Weather Roundup
Issued by NWS

Home | Current Version | Previous Version | Text Only | Print | Product List | Glossary On
Versions: 1 2 3 4 5 6 7 8 9 10 11 12 13 14 15 16 17 18 19 20 21 22 23 24 25 26 27 28 29 30 31 32 33 34 35 36 37 38 39 40 41 42 43 44 45 46 47 48 49 50
000
ASUS43 KDTX 030410
RWRMI
MICHIGAN HOURLY REGIONAL WEATHER ROUNDUP
NATIONAL WEATHER SERVICE DETROIT/PONTIAC MI
ISSUED BY NATIONAL WEATHER SERVICE GRAND RAPIDS MI
1100 PM EST FRI DEC 02 2016

NOTE: "FAIR" INDICATES FEW OR NO CLOUDS BELOW 12,000 FEET WITH NO
SIGNIFICANT WEATHER AND/OR OBSTRUCTION TO VISIBILITY.

MIZ047>049-052>055-059>063-066>070-074>076-081>083-030500-
SOUTHEAST LOWER MICHIGAN

CITY           SKY/WX    TMP DP  RH WIND       PRES   REMARKS
ADRIAN         CLOUDY    35  28  75 NW8       30.26R WCI  29
ALMA           PTCLDY    33  29  85 W8        30.23R WCI  26
ANN ARBOR      CLOUDY    35  27  72 SW12      30.23R WCI  27
BAD AXE        CLOUDY    37  32  83 W13       30.17R WCI  28
DETROIT CITY   CLOUDY    36  28  73 NW8       30.23R WCI  30
DETROIT        CLOUDY    34  27  75 W8        30.24R WCI  27
FLINT          MOCLDY    33  28  81 W9        30.22R WCI  25
GROSSE ILE     CLOUDY    36  28  72 W8        30.23R WCI  29
HILLSDALE      CLOUDY    34  28  80 W7        30.23S WCI  28
HOWELL         CLOUDY    35  28  76 W7        30.23R WCI  29

CITY           SKY/WX    TMP DP  RH WIND       PRES   REMARKS
JACKSON        CLOUDY    34  27  75 NW8       30.25R WCI  27
LANSING        CLOUDY    35  27  72 W9        30.25R WCI  28
MASON          CLOUDY    34  29  80 W7        30.25R WCI  28
MONROE         CLOUDY    35  28  76 W10       30.24S WCI  28
MT. CLEMENS    PTCLDY    36  29  74 W12       30.18R WCI  28
PONTIAC        MOCLDY    33  27  78 W9        30.20R WCI  25
PORT HOPE        N/A     41  34  76 NW13G22   30.13R
PORT HURON     CLOUDY    37  30  75 W5        30.19R WCI  34
TRI CITIES     MOCLDY    34  31  88 W9        30.22R WCI  27
YPSILANTI      CLOUDY    37  28  70 W13       30.24R WCI  29
$$
MIZ043>046-050>051-056>058-064>065-071>073-077>080-030500-
SOUTHWEST LOWER MICHIGAN

CITY           SKY/WX    TMP DP  RH WIND       PRES   REMARKS
BATTLE CREEK   CLOUDY    35  30  82 W5        30.26S WCI  31
BENTON HARBOR  CLOUDY    38  26  62 W10       30.28S WCI  31
BIG RAPIDS     CLOUDY    36  30  79 W10       30.21S WCI  28
COLDWATER      CLOUDY    36  28  73 W6        30.26S WCI  31
HOLLAND        CLOUDY    38  29  70 W5        30.27R WCI  34
GRAND RAPIDS   CLOUDY    36  27  69 W8        30.27R WCI  30
KALAMAZOO      CLOUDY    36  28  73 W3        30.27R
MARSHALL       CLOUDY    35  30  83 W5        30.26R WCI  31
MOUNT PLEASANT CLOUDY    33  29  86 W5        30.21S WCI  29
MUSKEGON       CLOUDY    38  29  70 W3        30.27R
STURGIS        CLOUDY    36  26  67 NW3       30.26S
$$
MIZ016>042-030500-
NORTHERN LOWER MICHIGAN

CITY           SKY/WX    TMP DP  RH WIND       PRES   REMARKS
ALPENA         MOCLDY    37  32  82 VRB7      30.15R WCI  32
BEAVER ISLAND  CLOUDY    37  32  81 NW8       30.19S WCI  31
BELLAIRE       FLURRIES  37  36  94 CALM      30.20R
CADILLAC       CLOUDY    34  32  93 W6        30.18S WCI  29
CHARLEVOIX     RAIN      38  36  90 NW12      30.21S WCI  31
GAYLORD        LGT RAIN  36  32  85 VRB5      30.15R WCI  32
HOUGHTON LAKE  CLOUDY    36  32  85 W12       30.18R WCI  28
MANISTEE       CLOUDY    38  32  79 W7        30.22S WCI  33
OSCODA         CLOUDY    39  32  75 W7        30.15R WCI  34
PELLSTON       CLOUDY    38  31  76 NW13      30.17S WCI  30
TRAVERSE CITY  CLOUDY    38  35  89 W6        30.20R WCI  33
LUDINGTON      CLOUDY    37  32  81 W6        30.24R WCI  32
$$
MIZ007>008-015-030500-
EASTERN UPPER MICHIGAN

CITY           SKY/WX    TMP DP  RH WIND       PRES   REMARKS
KINROSS        CLOUDY    32  32 100 W8        30.13S WCI  25
MACKINAC ISLAN CLOUDY    35  32  89 NW10      30.15S WCI  27
NEWBERRY       CLOUDY    33  32  96 W8        30.16S WCI  26
S. S. MARIE    CLOUDY    36  32  87 NW6       30.12R WCI  31
$$
MIZ004>006-011>014-085-030500-
CENTRAL UPPER MICHIGAN

CITY           SKY/WX    TMP DP  RH WIND       PRES   REMARKS
MANISTIQUE     CLOUDY    34  32  92 NW8       30.19S WCI  27
ESCANABA       CLOUDY    34  29  82 W5        30.22S WCI  30
MENOMINEE      CLOUDY    35  28  75 NW3       30.24S
SAWYER-GWINN   CLOUDY    31  28  87 NW3       30.19S
$$
MIZ001>003-009>011-084-030500-
WESTERN UPPER MICHIGAN

CITY           SKY/WX    TMP DP  RH WIND       PRES   REMARKS
IRON MOUNTAIN  CLOUDY    33  26  75 NW6       30.20S WCI  28
HOUGHTON       LGT SNOW  32  28  85 SW3       30.20S FOG
COPPER HARBOR    N/A     35  28  75 NE13      30.21R WCI  26
IRONWOOD       CLOUDY    28  25  88 SW8       30.23F WCI  20
$$

ABBREVIATIONS USED IN REMARKS
   TC - TEMPERATURE IN CELSIUS
  WCI - WIND CHILL INDEX
   HX - HEAT INDEX
  VSB - VISIBILITY





USA.gov is the U.S. government's official web portal to all federal, state and local government web resources and services.